Weather History for Olean, NY

Change the Weather History Date:

Thursday, August 9, 2012

  Actual Average (KBFD) Record (KBFD)
Temperature  
Mean Temperature 68 °F 65 °F  
Max Temperature 75 °F 77 °F 91 °F (2001)
Min Temperature 60 °F 53 °F 39 °F (1989)
Degree Days  
Heating Degree Days 0 1  
Month to date heating degree days 1  
Since 1 June heating degree days 210  
Since 1 July heating degree days 65  
Cooling Degree Days 2 2  
Month to date cooling degree days 18  
Year to date cooling degree days 142  
Since 1 June cooling degree days 132  
Growing Degree Days 18 (Base 50)    
Moisture  
Dew Point 62 °F    
Average Humidity 88    
Maximum Humidity 100    
Minimum Humidity 64    
Precipitation  
Precipitation 0.00 in 0.14 in 1.11 in (1998)
Month to date precipitation 1.22  
Year to date precipitation 27.06  
Sea Level Pressure  
Sea Level Pressure 29.96 in    
Wind  
Wind Speed 2 mph ()    
Max Wind Speed 15 mph    
Max Gust Speed 16 mph    
Visibility 9.1 miles    
Events Rain , Thunderstorm    
T = Trace of Precipitation, MM = Missing Value Source: Averaged Metar Reports

Daily Weather History Graph

Daily Weather History Graph

Search for Another Location

Airport:

Trip Planner

Search our weather history database for the weather conditions in past years. The results will help you decide how hot, cold, wet, or windy it might be!

Date:

Astronomy

Aug. 09, 2012 Rise Set
Actual Time 6:15 AM EDT 8:22 PM EDT
Civil Twilight 5:44 AM EDT 8:52 PM EDT
Nautical Twilight 5:06 AM EDT 9:30 PM EDT
Astronomical Twilight 4:24 AM EDT 10:11 PM EDT
Moon No Moon Rise 2:04 PM EDT (8/9)
Length of Visible Light 15h 08m
Length of Day
14h 06m
Waning Gibbous, 51% of the Moon is Illuminated
Aug 9
Waning Gibbous
Aug 9
Last Quarter
Aug 17
New
Aug 24
First Quarter
Aug 31
Full

Hourly Weather History & Observations

Time (EDT) Temp. Dew Point Humidity Pressure Visibility Wind Dir Wind Speed Gust Speed Precip Events Conditions
12:15 AM 64.4 °F 60.8 °F 88% 30.00 in 10.0 mi Calm Calm - N/A   Clear
12:35 AM 64.4 °F 60.8 °F 88% 30.01 in 10.0 mi SSW 3.5 mph - N/A   Clear
12:55 AM 64.4 °F 62.6 °F 94% 30.01 in 10.0 mi SW 3.5 mph - N/A   Clear
1:15 AM 64.4 °F 62.6 °F 94% 30.00 in 10.0 mi South 3.5 mph - N/A   Scattered Clouds
1:35 AM 62.6 °F 62.6 °F 100% 30.00 in 10.0 mi SW 3.5 mph - N/A   Clear
1:55 AM 62.6 °F 62.6 °F 100% 30.00 in 7.0 mi SSW 5.8 mph - N/A   Mostly Cloudy
2:15 AM 62.6 °F 60.8 °F 94% 29.99 in 10.0 mi SSW 4.6 mph - N/A   Overcast
2:35 AM 62.6 °F 60.8 °F 94% 29.97 in 10.0 mi SSW 5.8 mph - N/A   Mostly Cloudy
2:55 AM 62.6 °F 60.8 °F 94% 29.97 in 10.0 mi Calm Calm - N/A   Clear
3:15 AM 64.4 °F 60.8 °F 88% 29.98 in 10.0 mi Calm Calm - N/A   Mostly Cloudy
3:35 AM 64.4 °F 60.8 °F 88% 29.98 in 10.0 mi SSW 4.6 mph - N/A   Overcast
3:55 AM 62.6 °F 60.8 °F 94% 29.98 in 10.0 mi SSW 4.6 mph - N/A   Overcast
4:15 AM 62.6 °F 60.8 °F 94% 29.97 in 10.0 mi Calm Calm - N/A   Scattered Clouds
4:35 AM 62.6 °F 60.8 °F 94% 29.97 in 10.0 mi Calm Calm - N/A   Clear
4:55 AM 60.8 °F 60.8 °F 100% 29.97 in 10.0 mi Calm Calm - N/A   Scattered Clouds
5:15 AM 60.8 °F 60.8 °F 100% 29.97 in 10.0 mi Calm Calm - N/A   Scattered Clouds
5:35 AM 62.6 °F 60.8 °F 94% 29.97 in 10.0 mi Calm Calm - N/A   Scattered Clouds
5:55 AM 60.8 °F 60.8 °F 100% 29.97 in 10.0 mi Calm Calm - N/A   Clear
6:15 AM 60.8 °F 60.8 °F 100% 29.97 in 10.0 mi Calm Calm - N/A   Clear
6:35 AM 60.8 °F 60.8 °F 100% 29.98 in 7.0 mi Calm Calm - N/A   Mostly Cloudy
6:55 AM 60.8 °F 60.8 °F 100% 29.99 in 10.0 mi Calm Calm - N/A   Overcast
7:15 AM 60.8 °F 60.8 °F 100% 29.99 in 1.5 mi South 3.5 mph - N/A   Mostly Cloudy
7:35 AM 60.8 °F 60.8 °F 100% 29.99 in 5.0 mi SSW 5.8 mph - N/A   Scattered Clouds
7:55 AM 60.8 °F 60.8 °F 100% 29.99 in 7.0 mi SSW 4.6 mph - N/A   Clear
8:15 AM 60.8 °F 60.8 °F 100% 29.99 in 10.0 mi Calm Calm - N/A   Scattered Clouds
8:35 AM 62.6 °F 62.6 °F 100% 29.99 in 10.0 mi South 4.6 mph - N/A   Scattered Clouds
8:55 AM 64.4 °F 62.6 °F 94% 29.99 in 10.0 mi SSW 3.5 mph - N/A   Clear
9:15 AM 64.4 °F 62.6 °F 94% 29.99 in 10.0 mi Calm Calm - N/A   Clear
9:35 AM 68.0 °F 62.6 °F 83% 29.99 in 10.0 mi Calm Calm - N/A   Clear
9:55 AM 68.0 °F 62.6 °F 83% 29.99 in 10.0 mi Calm Calm - N/A   Clear
10:15 AM 69.8 °F 64.4 °F 83% 29.99 in 10.0 mi WSW 4.6 mph - N/A   Scattered Clouds
10:35 AM 69.8 °F 64.4 °F 83% 29.99 in 10.0 mi WSW 3.5 mph - N/A   Scattered Clouds
10:55 AM 69.8 °F 64.4 °F 83% 29.99 in 10.0 mi Calm Calm - N/A   Mostly Cloudy
11:35 AM 71.6 °F 62.6 °F 73% 29.99 in 10.0 mi Calm Calm - N/A   Scattered Clouds
11:55 AM 71.6 °F 62.6 °F 73% 29.99 in 10.0 mi Calm Calm - N/A   Mostly Cloudy
12:15 PM 71.6 °F 59.0 °F 64% 29.99 in 10.0 mi Calm Calm - N/A Thunderstorm Scattered Clouds
12:35 PM 71.6 °F 59.0 °F 64% 29.99 in 10.0 mi Calm Calm - N/A   Mostly Cloudy
12:55 PM 69.8 °F 59.0 °F 68% 29.99 in 10.0 mi Calm Calm - N/A Rain , Thunderstorm Light Thunderstorms and Rain
1:15 PM 66.2 °F 60.8 °F 83% 29.99 in 7.0 mi Calm Calm - N/A Rain Rain
1:35 PM 64.4 °F 62.6 °F 94% 29.97 in 7.0 mi Calm Calm - N/A Rain , Thunderstorm Light Thunderstorms and Rain
1:55 PM 64.4 °F 64.4 °F 100% 29.96 in 10.0 mi Calm Calm - N/A Rain , Thunderstorm Light Thunderstorms and Rain
2:15 PM 66.2 °F 62.6 °F 88% 29.96 in 10.0 mi Calm Calm - N/A   Scattered Clouds
2:35 PM 69.8 °F 64.4 °F 83% 29.95 in 10.0 mi Calm Calm - N/A   Scattered Clouds
2:55 PM 71.6 °F 60.8 °F 69% 29.94 in 10.0 mi Calm Calm - N/A   Scattered Clouds
3:15 PM 71.6 °F 62.6 °F 73% 29.94 in 10.0 mi Calm Calm - N/A   Scattered Clouds
3:35 PM 71.6 °F 62.6 °F 73% 29.93 in 10.0 mi Calm Calm - N/A   Mostly Cloudy
3:55 PM 71.6 °F 62.6 °F 73% 29.92 in 10.0 mi Calm Calm - N/A   Mostly Cloudy
4:15 PM 73.4 °F 62.6 °F 69% 29.92 in 10.0 mi SE 3.5 mph - N/A   Scattered Clouds
4:35 PM 73.4 °F 62.6 °F 69% 29.91 in 10.0 mi SE 3.5 mph - N/A   Clear
4:55 PM 73.4 °F 62.6 °F 69% 29.90 in 10.0 mi Calm Calm - N/A   Clear
5:15 PM 75.2 °F 64.4 °F 69% 29.91 in 10.0 mi South 3.5 mph - N/A   Clear
5:35 PM 75.2 °F 64.4 °F 69% 29.90 in 10.0 mi ESE 3.5 mph - N/A   Clear
5:55 PM 75.2 °F 64.4 °F 69% 29.89 in 10.0 mi Calm Calm - N/A   Scattered Clouds
6:15 PM 73.4 °F 64.4 °F 73% 29.88 in 10.0 mi NE 4.6 mph - N/A   Scattered Clouds
6:35 PM 73.4 °F 64.4 °F 73% 29.87 in 10.0 mi Calm Calm - N/A Thunderstorm Scattered Clouds
6:55 PM 71.6 °F 66.2 °F 83% 29.86 in 10.0 mi North 3.5 mph - N/A Thunderstorm Thunderstorm
7:15 PM 71.6 °F 64.4 °F 78% 29.88 in 10.0 mi North 4.6 mph - N/A Thunderstorm Thunderstorm
7:35 PM 68.0 °F 64.4 °F 88% 29.90 in 10.0 mi SE 5.8 mph 16.1 mph N/A Rain Light Rain
7:55 PM 64.4 °F 60.8 °F 88% 29.89 in 10.0 mi SE 4.6 mph - N/A Rain , Thunderstorm Light Thunderstorms and Rain
8:15 PM 62.6 °F 60.8 °F 94% 29.90 in 7.0 mi East 4.6 mph - N/A Rain , Thunderstorm Thunderstorms and Rain
8:35 PM 62.6 °F 60.8 °F 94% 29.92 in 10.0 mi South 5.8 mph - N/A Thunderstorm Thunderstorm
8:55 PM 60.8 °F 60.8 °F 100% 29.93 in 4.0 mi SSW 15.0 mph - N/A Rain , Thunderstorm Heavy Thunderstorms and Rain
9:15 PM 60.8 °F 60.8 °F 100% 29.96 in 4.0 mi SW 10.4 mph - N/A Rain , Thunderstorm Heavy Thunderstorms and Rain
9:35 PM 60.8 °F 60.8 °F 100% 29.96 in 5.0 mi Calm Calm - N/A Rain , Thunderstorm Light Thunderstorms and Rain
9:55 PM 60.8 °F 60.8 °F 100% 29.94 in 5.0 mi SSE 3.5 mph - N/A Rain , Thunderstorm Thunderstorms and Rain
10:15 PM 60.8 °F 60.8 °F 100% 29.92 in 10.0 mi East 8.1 mph - N/A Rain , Thunderstorm Light Thunderstorms and Rain
10:35 PM 60.8 °F 60.8 °F 100% 29.91 in 4.0 mi Calm Calm - N/A   Light Drizzle
10:55 PM 60.8 °F 59.0 °F 94% 29.91 in 10.0 mi East 3.5 mph - N/A Thunderstorm Scattered Clouds
11:15 PM 60.8 °F 60.8 °F 100% 29.90 in 10.0 mi Calm Calm - N/A Rain , Thunderstorm Light Thunderstorms and Rain
11:35 PM 60.8 °F 59.0 °F 94% 29.90 in 10.0 mi SSE 3.5 mph - N/A   Mostly Cloudy
11:55 PM 60.8 °F 60.8 °F 100% 29.91 in 7.0 mi South 8.1 mph - N/A   Scattered Clouds